EUTELSAT 172B

Last updated on Wed Nov 20 2024 00:02:42 GMT+0000 (Coordinated Universal Time)

1 42741U 17029B 24324.30323288 -.00000004 00000+0 00000+0 0 9994 2 42741 0.0145 253.3207 0000253 46.5161 40.1645 1.00271530 27968
UTC large
Height (km)
Speed (km/s)
/
Latitude / Longitude
Inclination (degrees)
Orbital Period (minutes)
Azimuth
Elevation
Range (km)
Doppler Factor

Next 0 passes for location: London (51.5072 / 0.1276)

Sorry there are no passes over London.